Lid_Strength_Index
5 9 8 9 13 15 17 15 14 12 11 8 9 10 11 14 10 13 12 12 12 10 9 -0 -1 -2 -1 -1 -1 -1 -1 -1 -1 -1 -1 -1 -1 -1 -1 -1 -1 -1 -1 -1 -1 -1 -1 -1 -1
8 9 8 12 16 18 17 14 14 13 12 9 11 11 14 16 14 14 15 13 12 11 9 5 0 -1 -2 -2 -2 -2 -1 -1 -1 -1 -1 -1 -1 -1 -1 -1 -2 -1 -1 -1 -1 -1 -1 -1 -1
10 8 10 14 17 18 16 14 14 12 12 10 14 16 18 18 16 16 14 13 13 11 9 5 2 -0 -1 -1 -2 -2 -2 -2 -1 -1 -1 -1 -1 -1 -1 -2 -2 -2 -1 -1 -1 -1 -1 -1 -1
9 9 11 15 17 16 16 15 14 13 12 12 16 18 17 15 15 14 13 12 12 10 7 4 2 2 1 0 -1 -1 -1 -2 -2 -2 -1 -1 -1 -1 -2 -2 -2 -2 -2 -2 -2 -2 -2 -2 -1
9 11 14 16 16 16 16 16 14 14 14 15 12 16 16 13 12 12 12 11 11 10 8 5 2 2 3 3 1 1 -1 -1 -1 -2 -2 -2 -2 -1 -1 -2 -2 -2 -2 -2 -2 -2 -2 -2 -1
11 11 15 17 16 15 15 17 14 14 14 15 12 15 16 13 12 12 11 11 10 9 7 5 3 2 3 4 4 3 2 1 1 -0 -1 -1 -2 -2 -2 -1 -1 -2 -2 -2 -2 -2 -2 -2 -2
11 13 15 16 16 15 14 16 16 16 15 16 16 15 16 14 13 12 12 11 11 10 8 7 5 5 3 3 3 4 4 4 4 4 2 1 0 -1 -1 -1 -1 -1 -2 -2 -2 -2 -2 -2 -2
10 12 16 17 15 14 16 16 16 16 16 15 16 16 18 15 13 12 13 12 12 11 11 10 8 7 6 6 4 4 4 4 5 5 4 3 1 1 -0 -0 -1 -1 -1 -2 -2 -2 -2 -2 -2
9 14 16 15 14 15 17 16 16 17 17 18 16 17 16 14 13 13 13 13 12 11 11 11 10 9 7 7 6 5 4 4 4 4 3 4 2 2 3 0 -0 -1 -1 -1 -1 -1 -1 -1 -1
12 13 14 16 16 16 17 18 18 19 19 19 18 16 15 14 15 15 14 14 14 13 12 11 11 10 9 7 7 7 6 6 5 6 4 4 6 5 4 4 2 0 -0 -1 -1 -1 -1 0 0
16 14 16 17 17 17 17 18 17 19 19 18 18 17 15 15 15 15 15 14 14 13 12 11 11 11 10 9 8 8 7 7 7 7 6 5 5 4 5 4 4 4 1 0 0 -0 -0 0 1
15 16 16 16 16 17 18 17 18 17 17 15 16 16 15 15 14 14 14 14 14 13 12 12 12 11 11 10 9 8 8 7 8 7 6 6 7 6 5 4 4 5 3 1 -0 0 0 0 2
17 18 17 17 17 18 17 18 18 17 16 16 16 15 15 15 14 14 14 13 13 13 12 12 12 12 11 11 10 9 9 8 8 7 6 6 7 6 5 5 5 4 4 4 5 3 1 1 1
18 17 18 18 18 17 18 18 18 18 16 16 16 16 15 15 14 15 14 14 14 13 13 12 12 12 11 11 11 10 9 8 8 8 7 6 6 6 6 6 5 5 4 3 4 5 5 1 2
17 19 18 19 18 18 18 18 18 18 17 16 16 16 15 15 14 14 14 14 14 13 13 13 12 11 12 12 11 10 9 8 8 8 7 6 6 6 6 6 5 5 4 4 4 3 3 4 2
19 20 21 19 18 18 19 18 18 17 17 17 17 17 16 15 15 14 14 14 14 14 13 12 11 12 11 11 11 11 10 9 9 8 7 7 6 6 6 5 5 5 4 4 4 4 4 4 4
21 22 22 20 19 19 19 19 17 17 17 17 17 17 16 16 15 14 14 14 14 13 13 12 12 12 11 11 11 10 10 9 9 9 8 8 7 6 6 6 5 5 4 5 4 4 5 5 3
22 22 22 22 20 20 21 18 16 16 18 17 17 17 17 16 16 15 14 14 13 13 13 13 12 12 11 11 11 11 10 10 9 9 8 8 7 7 6 6 5 5 5 5 5 5 5 5 4
22 23 23 22 20 20 22 21 16 17 18 17 17 17 18 17 15 15 14 14 14 13 13 13 13 12 12 12 12 12 11 10 10 9 8 8 7 7 7 6 6 5 6 6 6 6 6 6 4
21 22 22 21 20 21 21 20 17 17 18 18 17 18 17 17 16 15 15 15 14 14 14 13 13 12 12 11 11 11 11 10 10 9 9 8 7 7 6 7 7 6 7 7 7 6 6 6 4
22 22 23 22 20 22 22 20 19 19 19 18 18 18 17 16 16 16 15 15 15 14 14 13 13 12 12 11 11 11 10 11 11 10 9 9 8 7 7 7 7 7 7 7 7 6 7 7 6
21 21 21 21 22 23 22 23 19 20 18 18 17 18 18 17 16 16 15 15 15 14 14 13 13 12 11 11 11 12 12 12 11 10 10 9 8 8 7 7 7 7 7 7 7 6 7 7 8
21 20 21 21 23 24 24 24 20 20 18 17 17 17 17 17 16 16 15 15 15 14 14 14 13 13 12 12 12 12 12 11 10 10 10 10 9 8 8 8 7 8 7 7 7 7 7 7 7
20 21 21 22 23 26 24 24 21 19 18 18 18 17 17 17 16 16 15 15 15 14 14 14 13 13 12 12 12 12 12 12 11 11 11 11 10 9 9 8 8 7 8 8 8 7 6 6 7
20 22 24 25 27 24 24 24 19 18 17 18 18 18 17 17 17 16 16 15 14 14 14 14 13 13 12 12 12 12 12 11 12 11 11 11 10 9 9 9 9 9 8 8 8 8 7 7 7
22 22 24 28 26 24 22 23 18 17 18 17 17 17 17 17 17 16 15 15 15 14 14 14 14 14 12 12 12 12 12 12 12 11 11 10 10 10 8 8 9 9 9 8 7 7 7 6 5
22 24 22 25 28 27 23 21 17 17 17 17 17 17 17 17 17 16 15 15 15 15 15 15 14 13 13 12 12 12 12 12 12 12 11 11 10 9 8 9 9 9 9 9 9 9 9 8 7
21 20 23 24 27 29 23 23 19 17 17 18 17 17 17 17 17 16 15 15 15 15 15 15 14 13 13 13 13 12 13 13 12 11 11 10 10 9 10 10 10 10 10 9 9 9 9 8 8
22 23 23 24 23 25 27 22 19 17 17 16 16 17 17 17 17 16 16 15 15 16 16 15 14 14 14 13 13 14 13 13 12 11 11 11 11 11 11 12 11 11 12 11 11 10 10 10 9
21 21 21 24 25 26 24 24 18 17 17 17 17 16 17 17 17 16 16 16 16 16 16 16 14 14 14 14 14 14 13 13 13 12 12 11 11 12 12 12 12 12 12 12 12 12 11 10 9